Tracking 18630 objects as of 23-May-2017
HD Live streaming from Space Station
objects crossing your sky now

FALCON 9 R/B

Track FALCON 9 R/B now!
10-day predictions


NORAD ID: 37253
Int'l Code: 2010-066K
Perigee: 303.0 km
Apogee: 10,279.5 km
Inclination: 34.5 °
Period: 208.9 minutes
Semi major axis: 11662 km
RCS: 20.0149 m2 (large)
Launch date: December 8, 2010
Source: United States (US)
Launch site: AIR FORCE EASTERN TEST RANGE (AFETR)

Note: This is a ROCKET BODY
Your satellite tracking list
Your tracking list is empty





NASA's NSSDC Master Catalog

Two Line Element Set (TLE):
1 37253U 10066K   17142.89561870 +.00003755 +00000-0 +39064-3 0  9997
2 37253 034.5108 028.7983 4277270 147.3873 248.3486 06.89336607158728
Source of the keplerian elements: AFSPC